Year,Month,Day,Hour,Minute,Value (Times are PST for temperature in C)
2004,10,02,00,00,11.70
2004,10,02,00,01,11.60
2004,10,02,00,02,11.60
2004,10,02,00,03,11.60
2004,10,02,00,04,11.60
2004,10,02,00,05,11.60
2004,10,02,00,06,11.40
2004,10,02,00,07,11.30
2004,10,02,00,08,11.20
2004,10,02,00,09,11.10
2004,10,02,00,10,11.10
2004,10,02,00,11,11.10
2004,10,02,00,12,11.20
2004,10,02,00,13,11.10
2004,10,02,00,14,11.10
2004,10,02,00,15,11.00
2004,10,02,00,16,11.00
2004,10,02,00,17,10.90
2004,10,02,00,18,10.90
2004,10,02,00,19,10.90
2004,10,02,00,20,10.90
2004,10,02,00,21,10.80
2004,10,02,00,22,10.80
2004,10,02,00,23,10.80
2004,10,02,00,24,10.70
2004,10,02,00,25,10.80
2004,10,02,00,26,10.80
2004,10,02,00,27,10.90
2004,10,02,00,28,11.00
2004,10,02,00,29,11.10
2004,10,02,00,30,11.20
2004,10,02,00,31,11.20
2004,10,02,00,32,11.20
2004,10,02,00,33,11.10
2004,10,02,00,34,11.10
2004,10,02,00,35,11.10
2004,10,02,00,36,11.10
2004,10,02,00,37,11.30
2004,10,02,00,38,11.30
2004,10,02,00,39,11.40
2004,10,02,00,40,11.40
2004,10,02,00,41,11.40
2004,10,02,00,42,11.20
2004,10,02,00,43,11.20
2004,10,02,00,44,11.10
2004,10,02,00,45,11.10
2004,10,02,00,46,11.10
2004,10,02,00,47,11.00
2004,10,02,00,48,11.00
2004,10,02,00,49,11.00
2004,10,02,00,50,11.10
2004,10,02,00,51,11.00
2004,10,02,00,52,11.00
2004,10,02,00,53,10.90
2004,10,02,00,54,11.00
2004,10,02,00,55,11.20
2004,10,02,00,56,11.20
2004,10,02,00,57,11.30
2004,10,02,00,58,11.40
2004,10,02,00,59,11.40
2004,10,02,01,00,11.40
2004,10,02,01,01,11.40
2004,10,02,01,02,11.40
2004,10,02,01,03,11.40
2004,10,02,01,04,11.40
2004,10,02,01,05,11.40
2004,10,02,01,06,11.30
2004,10,02,01,07,11.20
2004,10,02,01,08,11.10
2004,10,02,01,09,11.10
2004,10,02,01,10,11.00
2004,10,02,01,11,10.90
2004,10,02,01,12,10.90
2004,10,02,01,13,10.90
2004,10,02,01,14,10.90
2004,10,02,01,15,10.90
2004,10,02,01,16,10.90
2004,10,02,01,17,10.80
2004,10,02,01,18,10.80
2004,10,02,01,19,10.80
2004,10,02,01,20,10.80
2004,10,02,01,21,10.70
2004,10,02,01,22,10.70
2004,10,02,01,23,10.70
2004,10,02,01,24,10.80
2004,10,02,01,25,10.80
2004,10,02,01,26,10.80
2004,10,02,01,27,10.80
2004,10,02,01,28,10.90
2004,10,02,01,29,10.80
2004,10,02,01,30,10.70
2004,10,02,01,31,10.70
2004,10,02,01,32,10.70
2004,10,02,01,33,10.80
2004,10,02,01,34,10.90
2004,10,02,01,35,10.80
2004,10,02,01,36,10.90
2004,10,02,01,37,10.80
2004,10,02,01,38,10.70
2004,10,02,01,39,10.60
2004,10,02,01,40,10.60
2004,10,02,01,41,10.60
2004,10,02,01,42,10.60
2004,10,02,01,43,10.70
2004,10,02,01,44,10.80
2004,10,02,01,45,10.80
2004,10,02,01,46,10.90
2004,10,02,01,47,10.90
2004,10,02,01,48,10.90
2004,10,02,01,49,10.90
2004,10,02,01,50,10.90
2004,10,02,01,51,10.90
2004,10,02,01,52,10.90
2004,10,02,01,53,10.90
2004,10,02,01,54,10.90
2004,10,02,01,55,10.90
2004,10,02,01,56,10.90
2004,10,02,01,57,10.90
2004,10,02,01,58,10.70
2004,10,02,01,59,10.70
2004,10,02,02,00,10.70
2004,10,02,02,01,10.80
2004,10,02,02,02,10.80
2004,10,02,02,03,10.80
2004,10,02,02,04,10.70
2004,10,02,02,05,10.70
2004,10,02,02,06,10.70
2004,10,02,02,07,10.70
2004,10,02,02,08,10.70
2004,10,02,02,09,10.70
2004,10,02,02,10,10.70
2004,10,02,02,11,10.60
2004,10,02,02,12,10.70
2004,10,02,02,13,10.70
2004,10,02,02,14,10.70
2004,10,02,02,15,10.60
2004,10,02,02,16,10.70
2004,10,02,02,17,10.70
2004,10,02,02,18,10.80
2004,10,02,02,19,10.90
2004,10,02,02,20,10.90
2004,10,02,02,21,10.90
2004,10,02,02,22,10.90
2004,10,02,02,23,10.80
2004,10,02,02,24,10.80
2004,10,02,02,25,10.70
2004,10,02,02,26,10.70
2004,10,02,02,27,10.70
2004,10,02,02,28,10.80
2004,10,02,02,29,10.70
2004,10,02,02,30,10.70
2004,10,02,02,31,10.60
2004,10,02,02,32,10.70
2004,10,02,02,33,10.80
2004,10,02,02,34,10.80
2004,10,02,02,35,10.90
2004,10,02,02,36,10.90
2004,10,02,02,37,11.10
2004,10,02,02,38,11.10
2004,10,02,02,39,11.10
2004,10,02,02,40,11.00
2004,10,02,02,41,10.90
2004,10,02,02,42,10.80
2004,10,02,02,43,10.60
2004,10,02,02,44,10.60
2004,10,02,02,45,10.50
2004,10,02,02,46,10.40
2004,10,02,02,47,10.40
2004,10,02,02,48,10.40
2004,10,02,02,49,10.60
2004,10,02,02,50,10.60
2004,10,02,02,51,10.60
2004,10,02,02,52,10.60
2004,10,02,02,53,10.60
2004,10,02,02,54,10.60
2004,10,02,02,55,10.60
2004,10,02,02,56,10.70
2004,10,02,02,57,10.70
2004,10,02,02,58,10.80
2004,10,02,02,59,10.70
2004,10,02,03,00,10.70
2004,10,02,03,01,10.50
2004,10,02,03,02,10.20
2004,10,02,03,03,10.10
2004,10,02,03,04,10.10
2004,10,02,03,05,10.00
2004,10,02,03,06,9.90
2004,10,02,03,07,9.90
2004,10,02,03,08,9.90
2004,10,02,03,09,9.90
2004,10,02,03,10,9.90
2004,10,02,03,11,9.90
2004,10,02,03,12,9.90
2004,10,02,03,13,9.90
2004,10,02,03,14,9.90
2004,10,02,03,15,9.90
2004,10,02,03,16,9.90
2004,10,02,03,17,9.90
2004,10,02,03,18,9.80
2004,10,02,03,19,9.80
2004,10,02,03,20,9.80
2004,10,02,03,21,9.80
2004,10,02,03,22,9.80
2004,10,02,03,23,9.90
2004,10,02,03,24,9.90
2004,10,02,03,25,9.90
2004,10,02,03,26,9.90
2004,10,02,03,27,9.90
2004,10,02,03,28,9.80
2004,10,02,03,29,9.80
2004,10,02,03,30,9.70
2004,10,02,03,31,9.70
2004,10,02,03,32,9.70
2004,10,02,03,33,9.70
2004,10,02,03,34,9.60
2004,10,02,03,35,9.60
2004,10,02,03,36,9.60
2004,10,02,03,37,9.70
2004,10,02,03,38,9.80
2004,10,02,03,39,9.90
2004,10,02,03,40,9.90
2004,10,02,03,41,9.90
2004,10,02,03,42,10.00
2004,10,02,03,43,10.10
2004,10,02,03,44,10.10
2004,10,02,03,45,10.20
2004,10,02,03,46,10.30
2004,10,02,03,47,10.30
2004,10,02,03,48,10.40
2004,10,02,03,49,10.40
2004,10,02,03,50,10.40
2004,10,02,03,51,10.40
2004,10,02,03,52,10.40
2004,10,02,03,53,10.40
2004,10,02,03,54,10.20
2004,10,02,03,55,10.20
2004,10,02,03,56,10.10
2004,10,02,03,57,9.90
2004,10,02,03,58,9.80
2004,10,02,03,59,9.70
2004,10,02,04,00,9.70
2004,10,02,04,01,9.60
2004,10,02,04,02,9.50
2004,10,02,04,03,9.50
2004,10,02,04,04,9.50
2004,10,02,04,05,9.50
2004,10,02,04,06,9.40
2004,10,02,04,07,9.40
2004,10,02,04,08,9.30
2004,10,02,04,09,9.30
2004,10,02,04,10,9.40
2004,10,02,04,11,9.50
2004,10,02,04,12,9.70
2004,10,02,04,13,9.80
2004,10,02,04,14,9.90
2004,10,02,04,15,10.00
2004,10,02,04,16,10.10
2004,10,02,04,17,10.20
2004,10,02,04,18,10.10
2004,10,02,04,19,10.10
2004,10,02,04,20,10.10
2004,10,02,04,21,9.90
2004,10,02,04,22,9.90
2004,10,02,04,23,9.80
2004,10,02,04,24,9.70
2004,10,02,04,25,9.70
2004,10,02,04,26,9.60
2004,10,02,04,27,9.60
2004,10,02,04,28,9.60
2004,10,02,04,29,9.50
2004,10,02,04,30,9.60
2004,10,02,04,31,9.70
2004,10,02,04,32,9.80
2004,10,02,04,33,9.90
2004,10,02,04,34,9.90
2004,10,02,04,35,9.90
2004,10,02,04,36,9.90
2004,10,02,04,37,9.90
2004,10,02,04,38,9.90
2004,10,02,04,39,9.90
2004,10,02,04,40,9.90
2004,10,02,04,41,9.90
2004,10,02,04,42,9.90
2004,10,02,04,43,9.90
2004,10,02,04,44,9.80
2004,10,02,04,45,9.80
2004,10,02,04,46,9.80
2004,10,02,04,47,9.90
2004,10,02,04,48,9.90
2004,10,02,04,49,10.00
2004,10,02,04,50,10.10
2004,10,02,04,51,10.10
2004,10,02,04,52,10.10
2004,10,02,04,53,10.10
2004,10,02,04,54,10.20
2004,10,02,04,55,10.30
2004,10,02,04,56,10.30
2004,10,02,04,57,10.20
2004,10,02,04,58,10.10
2004,10,02,04,59,10.10
2004,10,02,05,00,10.10
2004,10,02,05,01,10.10
2004,10,02,05,02,10.20
2004,10,02,05,03,10.20
2004,10,02,05,04,10.20
2004,10,02,05,05,10.10
2004,10,02,05,06,10.10
2004,10,02,05,07,10.20
2004,10,02,05,08,10.20
2004,10,02,05,09,10.30
2004,10,02,05,10,10.40
2004,10,02,05,11,10.40
2004,10,02,05,12,10.40
2004,10,02,05,13,10.40
2004,10,02,05,14,10.50
2004,10,02,05,15,10.40
2004,10,02,05,16,10.40
2004,10,02,05,17,10.40
2004,10,02,05,18,10.40
2004,10,02,05,19,10.40
2004,10,02,05,20,10.30
2004,10,02,05,21,10.20
2004,10,02,05,22,10.00
2004,10,02,05,23,9.90
2004,10,02,05,24,9.70
2004,10,02,05,25,9.60
2004,10,02,05,26,9.50
2004,10,02,05,27,9.50
2004,10,02,05,28,9.50
2004,10,02,05,29,9.50
2004,10,02,05,30,9.50
2004,10,02,05,31,9.50
2004,10,02,05,32,9.50
2004,10,02,05,33,9.40
2004,10,02,05,34,9.40
2004,10,02,05,35,9.50
2004,10,02,05,36,9.50
2004,10,02,05,37,9.60
2004,10,02,05,38,9.60
2004,10,02,05,39,9.70
2004,10,02,05,40,9.70
2004,10,02,05,41,9.70
2004,10,02,05,42,9.70
2004,10,02,05,43,9.90
2004,10,02,05,44,9.90
2004,10,02,05,45,9.90
2004,10,02,05,46,9.90
2004,10,02,05,47,9.90
2004,10,02,05,48,9.90
2004,10,02,05,49,9.90
2004,10,02,05,50,9.90
2004,10,02,05,51,10.10
2004,10,02,05,52,10.10
2004,10,02,05,53,10.10
2004,10,02,05,54,10.10
2004,10,02,05,55,10.10
2004,10,02,05,56,10.10
2004,10,02,05,57,10.00
2004,10,02,05,58,10.00
2004,10,02,05,59,10.10
2004,10,02,06,00,10.10
2004,10,02,06,01,10.10
2004,10,02,06,02,10.10
2004,10,02,06,03,10.10
2004,10,02,06,04,10.20
2004,10,02,06,05,10.30
2004,10,02,06,06,10.30
2004,10,02,06,07,10.40
2004,10,02,06,08,10.40
2004,10,02,06,09,10.40
2004,10,02,06,10,10.50
2004,10,02,06,11,10.40
2004,10,02,06,12,10.50
2004,10,02,06,13,10.50
2004,10,02,06,14,10.60
2004,10,02,06,15,10.60
2004,10,02,06,16,10.60
2004,10,02,06,17,10.40
2004,10,02,06,18,10.40
2004,10,02,06,19,10.40
2004,10,02,06,20,10.60
2004,10,02,06,21,10.60
2004,10,02,06,22,10.60
2004,10,02,06,23,10.60
2004,10,02,06,24,10.50
2004,10,02,06,25,10.40
2004,10,02,06,26,10.40
2004,10,02,06,27,10.40
2004,10,02,06,28,10.40
2004,10,02,06,29,10.40
2004,10,02,06,30,10.40
2004,10,02,06,31,10.40
2004,10,02,06,32,10.40
2004,10,02,06,33,10.40
2004,10,02,06,34,10.40
2004,10,02,06,35,10.40
2004,10,02,06,36,10.50
2004,10,02,06,37,10.60
2004,10,02,06,38,10.60
2004,10,02,06,39,10.60
2004,10,02,06,40,10.60
2004,10,02,06,41,10.60
2004,10,02,06,42,10.70
2004,10,02,06,43,10.70
2004,10,02,06,44,10.80
2004,10,02,06,45,10.80
2004,10,02,06,46,10.80
2004,10,02,06,47,10.80
2004,10,02,06,48,10.90
2004,10,02,06,49,10.90
2004,10,02,06,50,11.00
2004,10,02,06,51,11.10
2004,10,02,06,52,11.10
2004,10,02,06,53,11.20
2004,10,02,06,54,11.20
2004,10,02,06,55,11.30
2004,10,02,06,56,11.30
2004,10,02,06,57,11.40
2004,10,02,06,58,11.40
2004,10,02,06,59,11.50
2004,10,02,07,00,11.60
2004,10,02,07,01,11.60
2004,10,02,07,02,11.60
2004,10,02,07,03,11.70
2004,10,02,07,04,11.70
2004,10,02,07,05,11.70
2004,10,02,07,06,11.70
2004,10,02,07,07,11.80
2004,10,02,07,08,11.80
2004,10,02,07,09,11.80
2004,10,02,07,10,11.80
2004,10,02,07,11,11.80
2004,10,02,07,12,11.80
2004,10,02,07,13,11.80
2004,10,02,07,14,11.80
2004,10,02,07,15,11.80
2004,10,02,07,16,11.80
2004,10,02,07,17,11.80
2004,10,02,07,18,11.80
2004,10,02,07,19,11.80
2004,10,02,07,20,11.80
2004,10,02,07,21,11.80
2004,10,02,07,22,11.70
2004,10,02,07,23,11.70
2004,10,02,07,24,11.70
2004,10,02,07,25,11.60
2004,10,02,07,26,11.60
2004,10,02,07,27,11.60
2004,10,02,07,28,11.70
2004,10,02,07,29,11.70
2004,10,02,07,30,11.80
2004,10,02,07,31,11.80
2004,10,02,07,32,11.80
2004,10,02,07,33,11.80
2004,10,02,07,34,11.70
2004,10,02,07,35,11.70
2004,10,02,07,36,11.70
2004,10,02,07,37,11.60
2004,10,02,07,38,11.60
2004,10,02,07,39,11.50
2004,10,02,07,40,11.40
2004,10,02,07,41,11.40
2004,10,02,07,42,11.50
2004,10,02,07,43,11.60
2004,10,02,07,44,11.60
2004,10,02,07,45,11.60
2004,10,02,07,46,11.60
2004,10,02,07,47,11.70
2004,10,02,07,48,11.70
2004,10,02,07,49,11.70
2004,10,02,07,50,11.80
2004,10,02,07,51,11.80
2004,10,02,07,52,11.80
2004,10,02,07,53,11.90
2004,10,02,07,54,11.90
2004,10,02,07,55,12.00
2004,10,02,07,56,12.00
2004,10,02,07,57,12.10
2004,10,02,07,58,12.10
2004,10,02,07,59,12.10
2004,10,02,08,00,12.20
2004,10,02,08,01,12.30
2004,10,02,08,02,12.30
2004,10,02,08,03,12.40
2004,10,02,08,04,12.40
2004,10,02,08,05,12.40
2004,10,02,08,06,12.50
2004,10,02,08,07,12.50
2004,10,02,08,08,12.60
2004,10,02,08,09,12.60
2004,10,02,08,10,12.60
2004,10,02,08,11,12.50
2004,10,02,08,12,12.50
2004,10,02,08,13,12.50
2004,10,02,08,14,12.50
2004,10,02,08,15,12.60
2004,10,02,08,16,12.60
2004,10,02,08,17,12.60
2004,10,02,08,18,12.70
2004,10,02,08,19,12.80
2004,10,02,08,20,12.80
2004,10,02,08,21,12.80
2004,10,02,08,22,12.80
2004,10,02,08,23,12.90
2004,10,02,08,24,12.90
2004,10,02,08,25,13.00
2004,10,02,08,26,13.00
2004,10,02,08,27,13.00
2004,10,02,08,28,13.00
2004,10,02,08,29,13.00
2004,10,02,08,30,13.00
2004,10,02,08,31,13.10
2004,10,02,08,32,13.10
2004,10,02,08,33,13.20
2004,10,02,08,34,13.20
2004,10,02,08,35,13.30
2004,10,02,08,36,13.30
2004,10,02,08,37,13.30
2004,10,02,08,38,13.30
2004,10,02,08,39,13.30
2004,10,02,08,40,13.30
2004,10,02,08,41,13.40
2004,10,02,08,42,13.40
2004,10,02,08,43,13.40
2004,10,02,08,44,13.50
2004,10,02,08,45,13.50
2004,10,02,08,46,13.60
2004,10,02,08,47,13.60
2004,10,02,08,48,13.60
2004,10,02,08,49,13.70
2004,10,02,08,50,13.70
2004,10,02,08,51,13.70
2004,10,02,08,52,13.70
2004,10,02,08,53,13.80
2004,10,02,08,54,13.80
2004,10,02,08,55,13.90
2004,10,02,08,56,13.90
2004,10,02,08,57,13.90
2004,10,02,08,58,14.00
2004,10,02,08,59,13.90
2004,10,02,09,00,13.90
2004,10,02,09,01,13.90
2004,10,02,09,02,13.90
2004,10,02,09,03,13.90
2004,10,02,09,04,13.90
2004,10,02,09,05,13.90
2004,10,02,09,06,13.90
2004,10,02,09,07,14.00
2004,10,02,09,08,14.00
2004,10,02,09,09,14.10
2004,10,02,09,10,14.10
2004,10,02,09,11,14.10
2004,10,02,09,12,14.20
2004,10,02,09,13,14.20
2004,10,02,09,14,14.30
2004,10,02,09,15,14.40
2004,10,02,09,16,14.50
2004,10,02,09,17,14.50
2004,10,02,09,18,14.50
2004,10,02,09,19,14.60
2004,10,02,09,20,14.60
2004,10,02,09,21,14.60
2004,10,02,09,22,14.60
2004,10,02,09,23,14.70
2004,10,02,09,24,14.70
2004,10,02,09,25,14.80
2004,10,02,09,26,14.80
2004,10,02,09,27,14.80
2004,10,02,09,28,14.80
2004,10,02,09,29,14.80
2004,10,02,09,30,14.80
2004,10,02,09,31,14.80
2004,10,02,09,32,14.80
2004,10,02,09,33,14.80
2004,10,02,09,34,14.80
2004,10,02,09,35,14.80
2004,10,02,09,36,14.80
2004,10,02,09,37,14.80
2004,10,02,09,38,14.80
2004,10,02,09,39,14.80
2004,10,02,09,40,14.80
2004,10,02,09,41,14.90
2004,10,02,09,42,14.90
2004,10,02,09,43,14.90
2004,10,02,09,44,14.90
2004,10,02,09,45,14.90
2004,10,02,09,46,14.90
2004,10,02,09,47,14.90
2004,10,02,09,48,15.00
2004,10,02,09,49,15.00
2004,10,02,09,50,15.10
2004,10,02,09,51,15.10
2004,10,02,09,52,15.20
2004,10,02,09,53,15.20
2004,10,02,09,54,15.20
2004,10,02,09,55,15.20
2004,10,02,09,56,15.20
2004,10,02,09,57,15.20
2004,10,02,09,58,15.20
2004,10,02,09,59,15.20
2004,10,02,10,00,15.20
2004,10,02,10,01,15.20
2004,10,02,10,02,15.20
2004,10,02,10,03,15.30
2004,10,02,10,04,15.30
2004,10,02,10,05,15.30
2004,10,02,10,06,15.20
2004,10,02,10,07,15.20
2004,10,02,10,08,15.20
2004,10,02,10,09,15.20
2004,10,02,10,10,15.20
2004,10,02,10,11,15.20
2004,10,02,10,12,15.30
2004,10,02,10,13,15.30
2004,10,02,10,14,15.30
2004,10,02,10,15,15.30
2004,10,02,10,16,15.30
2004,10,02,10,17,15.30
2004,10,02,10,18,15.30
2004,10,02,10,19,15.30
2004,10,02,10,20,15.40
2004,10,02,10,21,15.40
2004,10,02,10,22,15.40
2004,10,02,10,23,15.40
2004,10,02,10,24,15.40
2004,10,02,10,25,15.40
2004,10,02,10,26,15.30
2004,10,02,10,27,15.30
2004,10,02,10,28,15.40
2004,10,02,10,29,15.40
2004,10,02,10,30,15.40
2004,10,02,10,31,15.40
2004,10,02,10,32,15.30
2004,10,02,10,33,15.40
2004,10,02,10,34,15.30
2004,10,02,10,35,15.30
2004,10,02,10,36,15.40
2004,10,02,10,37,15.40
2004,10,02,10,38,15.40
2004,10,02,10,39,15.40
2004,10,02,10,40,15.40
2004,10,02,10,41,15.40
2004,10,02,10,42,15.40
2004,10,02,10,43,15.40
2004,10,02,10,44,15.40
2004,10,02,10,45,15.50
2004,10,02,10,46,15.50
2004,10,02,10,47,15.50
2004,10,02,10,48,15.60
2004,10,02,10,49,15.60
2004,10,02,10,50,15.80
2004,10,02,10,51,15.80
2004,10,02,10,52,15.80
2004,10,02,10,53,15.80
2004,10,02,10,54,15.90
2004,10,02,10,55,16.00
2004,10,02,10,56,16.10
2004,10,02,10,57,16.10
2004,10,02,10,58,16.20
2004,10,02,10,59,16.20
2004,10,02,11,00,16.10
2004,10,02,11,01,16.10
2004,10,02,11,02,16.10
2004,10,02,11,03,16.10
2004,10,02,11,04,16.10
2004,10,02,11,05,16.10
2004,10,02,11,06,16.10
2004,10,02,11,07,16.10
2004,10,02,11,08,16.20
2004,10,02,11,09,16.20
2004,10,02,11,10,16.30
2004,10,02,11,11,16.30
2004,10,02,11,12,16.30
2004,10,02,11,13,16.30
2004,10,02,11,14,16.30
2004,10,02,11,15,16.30
2004,10,02,11,16,16.30
2004,10,02,11,17,16.40
2004,10,02,11,18,16.40
2004,10,02,11,19,16.40
2004,10,02,11,20,16.40
2004,10,02,11,21,16.40
2004,10,02,11,22,16.40
2004,10,02,11,23,16.40
2004,10,02,11,24,16.40
2004,10,02,11,25,16.30
2004,10,02,11,26,16.30
2004,10,02,11,27,16.20
2004,10,02,11,28,16.20
2004,10,02,11,29,16.20
2004,10,02,11,30,16.20
2004,10,02,11,31,16.20
2004,10,02,11,32,16.30
2004,10,02,11,33,16.30
2004,10,02,11,34,16.40
2004,10,02,11,35,16.40
2004,10,02,11,36,16.50
2004,10,02,11,37,16.60
2004,10,02,11,38,16.70
2004,10,02,11,39,16.70
2004,10,02,11,40,16.70
2004,10,02,11,41,16.80
2004,10,02,11,42,16.80
2004,10,02,11,43,16.90
2004,10,02,11,44,16.90
2004,10,02,11,45,16.80
2004,10,02,11,46,16.90
2004,10,02,11,47,16.80
2004,10,02,11,48,16.80
2004,10,02,11,49,16.80
2004,10,02,11,50,16.80
2004,10,02,11,51,16.70
2004,10,02,11,52,16.80
2004,10,02,11,53,16.80
2004,10,02,11,54,16.70
2004,10,02,11,55,16.70
2004,10,02,11,56,16.70
2004,10,02,11,57,16.70
2004,10,02,11,58,16.70
2004,10,02,11,59,16.70
2004,10,02,12,00,16.70
2004,10,02,12,01,16.70
2004,10,02,12,02,16.70
2004,10,02,12,03,16.70
2004,10,02,12,04,16.70
2004,10,02,12,05,16.70
2004,10,02,12,06,16.70
2004,10,02,12,07,16.70
2004,10,02,12,08,16.80
2004,10,02,12,09,16.90
2004,10,02,12,10,16.90
2004,10,02,12,11,16.90
2004,10,02,12,12,16.80
2004,10,02,12,13,16.90
2004,10,02,12,14,16.90
2004,10,02,12,15,16.80
2004,10,02,12,16,16.90
2004,10,02,12,17,16.80
2004,10,02,12,18,16.80
2004,10,02,12,19,16.80
2004,10,02,12,20,16.70
2004,10,02,12,21,16.70
2004,10,02,12,22,16.80
2004,10,02,12,23,16.90
2004,10,02,12,24,17.00
2004,10,02,12,25,17.00
2004,10,02,12,26,17.00
2004,10,02,12,27,17.10
2004,10,02,12,28,17.20
2004,10,02,12,29,17.20
2004,10,02,12,30,17.30
2004,10,02,12,31,17.30
2004,10,02,12,32,17.50
2004,10,02,12,33,17.50
2004,10,02,12,34,17.50
2004,10,02,12,35,17.60
2004,10,02,12,36,17.60
2004,10,02,12,37,17.60
2004,10,02,12,38,17.50
2004,10,02,12,39,17.50
2004,10,02,12,40,17.60
2004,10,02,12,41,17.60
2004,10,02,12,42,17.60
2004,10,02,12,43,17.60
2004,10,02,12,44,17.70
2004,10,02,12,45,17.70
2004,10,02,12,46,17.60
2004,10,02,12,47,17.70
2004,10,02,12,48,17.70
2004,10,02,12,49,17.80
2004,10,02,12,50,17.80
2004,10,02,12,51,17.80
2004,10,02,12,52,17.80
2004,10,02,12,53,17.80
2004,10,02,12,54,17.80
2004,10,02,12,55,17.80
2004,10,02,12,56,17.90
2004,10,02,12,57,17.90
2004,10,02,12,58,17.90
2004,10,02,12,59,17.90
2004,10,02,13,00,17.90
2004,10,02,13,01,17.90
2004,10,02,13,02,17.90
2004,10,02,13,03,18.00
2004,10,02,13,04,18.10
2004,10,02,13,05,18.20
2004,10,02,13,06,18.30
2004,10,02,13,07,18.30
2004,10,02,13,08,18.30
2004,10,02,13,09,18.40
2004,10,02,13,10,18.50
2004,10,02,13,11,18.50
2004,10,02,13,12,18.50
2004,10,02,13,13,18.40
2004,10,02,13,14,18.40
2004,10,02,13,15,18.30
2004,10,02,13,16,18.30
2004,10,02,13,17,18.20
2004,10,02,13,18,18.20
2004,10,02,13,19,18.20
2004,10,02,13,20,18.20
2004,10,02,13,21,18.20
2004,10,02,13,22,18.20
2004,10,02,13,23,18.20
2004,10,02,13,24,18.30
2004,10,02,13,25,18.30
2004,10,02,13,26,18.40
2004,10,02,13,27,18.40
2004,10,02,13,28,18.50
2004,10,02,13,29,18.60
2004,10,02,13,30,18.70
2004,10,02,13,31,18.90
2004,10,02,13,32,19.00
2004,10,02,13,33,19.10
2004,10,02,13,34,19.10
2004,10,02,13,35,19.10
2004,10,02,13,36,19.20
2004,10,02,13,37,19.30
2004,10,02,13,38,19.30
2004,10,02,13,39,19.20
2004,10,02,13,40,19.20
2004,10,02,13,41,19.10
2004,10,02,13,42,19.10
2004,10,02,13,43,19.10
2004,10,02,13,44,19.00
2004,10,02,13,45,18.90
2004,10,02,13,46,18.90
2004,10,02,13,47,18.90
2004,10,02,13,48,18.90
2004,10,02,13,49,18.90
2004,10,02,13,50,18.90
2004,10,02,13,51,18.90
2004,10,02,13,52,18.90
2004,10,02,13,53,18.90
2004,10,02,13,54,18.90
2004,10,02,13,55,18.90
2004,10,02,13,56,18.90
2004,10,02,13,57,18.90
2004,10,02,13,58,18.90
2004,10,02,13,59,18.90
2004,10,02,14,00,19.00
2004,10,02,14,01,19.10
2004,10,02,14,02,18.90
2004,10,02,14,03,19.00
2004,10,02,14,04,19.00
2004,10,02,14,05,19.10
2004,10,02,14,06,19.10
2004,10,02,14,07,19.10
2004,10,02,14,08,19.10
2004,10,02,14,09,19.20
2004,10,02,14,10,19.30
2004,10,02,14,11,19.30
2004,10,02,14,12,19.30
2004,10,02,14,13,19.30
2004,10,02,14,14,19.20
2004,10,02,14,15,19.20
2004,10,02,14,16,19.30
2004,10,02,14,17,19.40
2004,10,02,14,18,19.40
2004,10,02,14,19,19.30
2004,10,02,14,20,19.30
2004,10,02,14,21,19.30
2004,10,02,14,22,19.30
2004,10,02,14,23,19.30
2004,10,02,14,24,19.20
2004,10,02,14,25,19.30
2004,10,02,14,26,19.40
2004,10,02,14,27,19.40
2004,10,02,14,28,19.50
2004,10,02,14,29,19.60
2004,10,02,14,30,19.70
2004,10,02,14,31,19.60
2004,10,02,14,32,19.60
2004,10,02,14,33,19.60
2004,10,02,14,34,19.60
2004,10,02,14,35,19.70
2004,10,02,14,36,19.70
2004,10,02,14,37,19.80
2004,10,02,14,38,19.80
2004,10,02,14,39,19.80
2004,10,02,14,40,19.90
2004,10,02,14,41,19.90
2004,10,02,14,42,19.90
2004,10,02,14,43,19.90
2004,10,02,14,44,20.00
2004,10,02,14,45,20.10
2004,10,02,14,46,20.20
2004,10,02,14,47,20.20
2004,10,02,14,48,20.20
2004,10,02,14,49,20.20
2004,10,02,14,50,20.20
2004,10,02,14,51,20.20
2004,10,02,14,52,20.10
2004,10,02,14,53,19.90
2004,10,02,14,54,19.90
2004,10,02,14,55,19.90
2004,10,02,14,56,19.90
2004,10,02,14,57,19.90
2004,10,02,14,58,19.90
2004,10,02,14,59,20.00
2004,10,02,15,00,20.00
2004,10,02,15,01,20.00
2004,10,02,15,02,20.00
2004,10,02,15,03,20.00
2004,10,02,15,04,19.90
2004,10,02,15,05,19.90
2004,10,02,15,06,19.80
2004,10,02,15,07,19.70
2004,10,02,15,08,19.80
2004,10,02,15,09,19.80
2004,10,02,15,10,19.80
2004,10,02,15,11,19.80
2004,10,02,15,12,19.90
2004,10,02,15,13,19.90
2004,10,02,15,14,19.90
2004,10,02,15,15,19.90
2004,10,02,15,16,19.90
2004,10,02,15,17,19.90
2004,10,02,15,18,20.00
2004,10,02,15,19,20.00
2004,10,02,15,20,19.90
2004,10,02,15,21,19.90
2004,10,02,15,22,19.90
2004,10,02,15,23,19.90
2004,10,02,15,24,19.90
2004,10,02,15,25,19.80
2004,10,02,15,26,19.90
2004,10,02,15,27,19.90
2004,10,02,15,28,19.90
2004,10,02,15,29,19.90
2004,10,02,15,30,20.00
2004,10,02,15,31,20.00
2004,10,02,15,32,19.80
2004,10,02,15,33,19.80
2004,10,02,15,34,19.70
2004,10,02,15,35,19.60
2004,10,02,15,36,19.50
2004,10,02,15,37,19.50
2004,10,02,15,38,19.60
2004,10,02,15,39,19.70
2004,10,02,15,40,19.70
2004,10,02,15,41,19.70
2004,10,02,15,42,19.70
2004,10,02,15,43,19.70
2004,10,02,15,44,19.80
2004,10,02,15,45,19.90
2004,10,02,15,46,20.00
2004,10,02,15,47,20.10
2004,10,02,15,48,20.20
2004,10,02,15,49,20.20
2004,10,02,15,50,20.20
2004,10,02,15,51,20.20
2004,10,02,15,52,20.20
2004,10,02,15,53,20.30
2004,10,02,15,54,20.30
2004,10,02,15,55,20.30
2004,10,02,15,56,20.40
2004,10,02,15,57,20.30
2004,10,02,15,58,20.30
2004,10,02,15,59,20.30
2004,10,02,16,00,20.20
2004,10,02,16,01,20.20
2004,10,02,16,02,20.20
2004,10,02,16,03,20.20
2004,10,02,16,04,20.20
2004,10,02,16,05,20.20
2004,10,02,16,06,20.20
2004,10,02,16,07,20.20
2004,10,02,16,08,20.20
2004,10,02,16,09,20.30
2004,10,02,16,10,20.20
2004,10,02,16,11,20.20
2004,10,02,16,12,20.30
2004,10,02,16,13,20.20
2004,10,02,16,14,20.20
2004,10,02,16,15,20.10
2004,10,02,16,16,20.20
2004,10,02,16,17,20.20
2004,10,02,16,18,20.00
2004,10,02,16,19,20.00
2004,10,02,16,20,19.90
2004,10,02,16,21,19.90
2004,10,02,16,22,19.80
2004,10,02,16,23,19.80
2004,10,02,16,24,19.80
2004,10,02,16,25,19.90
2004,10,02,16,26,19.90
2004,10,02,16,27,19.90
2004,10,02,16,28,19.90
2004,10,02,16,29,19.80
2004,10,02,16,30,19.80
2004,10,02,16,31,19.80
2004,10,02,16,32,19.90
2004,10,02,16,33,19.80
2004,10,02,16,34,19.80
2004,10,02,16,35,19.90
2004,10,02,16,36,20.10
2004,10,02,16,37,20.20
2004,10,02,16,38,20.30
2004,10,02,16,39,20.30
2004,10,02,16,40,20.30
2004,10,02,16,41,20.20
2004,10,02,16,42,20.20
2004,10,02,16,43,20.20
2004,10,02,16,44,20.10
2004,10,02,16,45,20.00
2004,10,02,16,46,19.90
2004,10,02,16,47,19.90
2004,10,02,16,48,19.80
2004,10,02,16,49,19.90
2004,10,02,16,50,19.90
2004,10,02,16,51,19.90
2004,10,02,16,52,19.90
2004,10,02,16,53,19.80
2004,10,02,16,54,19.80
2004,10,02,16,55,19.70
2004,10,02,16,56,19.70
2004,10,02,16,57,19.80
2004,10,02,16,58,19.80
2004,10,02,16,59,19.80
2004,10,02,17,00,19.80
2004,10,02,17,01,19.70
2004,10,02,17,02,19.70
2004,10,02,17,03,19.60
2004,10,02,17,04,19.60
2004,10,02,17,05,19.70
2004,10,02,17,06,19.70
2004,10,02,17,07,19.80
2004,10,02,17,08,19.90
2004,10,02,17,09,20.00
2004,10,02,17,10,20.00
2004,10,02,17,11,20.10
2004,10,02,17,12,20.10
2004,10,02,17,13,20.20
2004,10,02,17,14,20.20
2004,10,02,17,15,20.30
2004,10,02,17,16,20.30
2004,10,02,17,17,20.30
2004,10,02,17,18,20.30
2004,10,02,17,19,20.30
2004,10,02,17,20,20.40
2004,10,02,17,21,20.50
2004,10,02,17,22,20.50
2004,10,02,17,23,20.50
2004,10,02,17,24,20.50